Location: Cucq
(50.4773°N, 1.6202°E)
Time: 16:36:58
(UTC+00:00)

CZ-4B R/B - Pass Details

Date: 07 August 2020
Orbit: 702 x 803 km, 98.9° (Epoch: 18 September)

Event Time Altitude Azimuth Distance (km) Brightness Sun altitude
Rises 02:34:47 0° 12° (NNE) 3,135 7.9 -15.0°
Reaches altitude 10° 02:37:05 10° 10° (N) 2,201 6.8 -14.8°
Maximum altitude 02:41:49 62° 290° (WNW) 795 3.5 -14.3°
Enters shadow 02:44:51 22° 215° (SW) 1,534 4.4 -14.0°
